Home   Weather   Finse   Past weeks

Flag for Norway Past Weather in Finse, Norway — Yesterday and Last 2 Weeks

Now
22 °F

Cold.


Feels Like: 18 °F
Forecast: 18 / 22 °F
Wind: 3 mph from Southeast

Location: Filefjell

Current Time: Apr 23, 2017 at 11:55:44 pm

Latest Report: Apr 23, 2017 at 11:00 pm


Visibility: N/A

Pressure: 29.78 "Hg (25.49 "Hg at 1221m altitude)

Humidity: 90%

Dew Point: 20 °F

Location of FinseLocation

Past Weather in Finse — Graph

°F

Finse Temperature Yesterday

Maximum temperature yesterday: 31 °F (at 4:00 pm)
Minimum temperature yesterday: 25 °F (at 12:00 am)
Average temperature yesterday: 28 °F

High & Low Weather Summary for the Past Weeks

 TemperatureHumidityPressure
High41 °F (Apr 9, 5:00 pm)96% (Apr 13, 2:00 am)30.72 "Hg (Apr 13, 2:00 am)
Low5 °F (Apr 18, 7:00 am)42% (Apr 22, 12:00 pm)29.38 "Hg (Apr 12, 11:00 am)
Average27 °F76%29.90 "Hg
* Reported Apr 8 10:00 pm — Apr 23 10:00 pm, Finse, Weather by CustomWeather, © 2017

Note: Actual official high and low records may vary slightly from our data, if they occured in-between our weather recording intervals... More about our weather records

Advertising

Finse Weather History for the Previous 24 Hours

Scroll right to see more
 ConditionsComfort  
Time TempWeatherWind HumidityBarometerVisibility
10:00 pm
Sun, Apr 23
23 °FCold.2 mph92%29.81 "HgN/A
9:00 pm24 °FCold.1 mph92%29.83 "HgN/A
8:00 pm25 °FCold.2 mph85%29.84 "HgN/A
7:00 pm26 °FChilly.5 mph73%29.85 "HgN/A
6:00 pm27 °FChilly.6 mph68%29.87 "HgN/A
5:00 pm28 °FChilly.7 mph60%29.88 "HgN/A
4:00 pm28 °FChilly.6 mph53%29.88 "HgN/A
3:00 pm27 °FChilly.8 mph57%29.90 "HgN/A
2:00 pm27 °FChilly.9 mph54%29.90 "HgN/A
1:00 pm29 °FChilly.8 mph43%29.89 "HgN/A
12:00 pm28 °FChilly.7 mph44%29.90 "HgN/A
11:00 am27 °FChilly.7 mph47%29.91 "HgN/A
10:00 am25 °FChilly.7 mph56%29.92 "HgN/A
9:00 am24 °FCold.6 mph68%29.93 "HgN/A
8:00 am23 °FCold.7 mph67%29.93 "HgN/A
7:00 am22 °FCold.6 mph72%29.94 "HgN/A
6:00 am22 °FCold.7 mph77%29.93 "HgN/A
5:00 am22 °FCold.7 mph78%29.94 "HgN/A
4:00 am22 °FCold.8 mph77%29.94 "HgN/A
3:00 am23 °FCold.8 mph78%29.94 "HgN/A
2:00 am23 °FCold.6 mph75%29.95 "HgN/A
1:00 am23 °FCold.6 mph89%29.94 "HgN/A
12:00 am24 °FCold.9 mph89%29.93 "HgN/A
11:00 pm
Sat, Apr 22
26 °FChilly.7 mph80%29.92 "HgN/A
Weather by CustomWeather, © 2017

See weather overviewHow to use our weather pages